Flag for Germany Weather past 2 weeks in Dreieich, Hesse, Germany

Now
53 °F

Clear.


Feels Like: 53 °F
Forecast: 53 / 67 °F
Wind: 1 mph from Northeast

Location: Frankfurt / M-Flughafen

Current Time: Oct 2, 2014 at 2:42:05 AM

Latest Report: Oct 2, 2014 at 2:00 AM


Visibility: 11 mi

Pressure: 30.37 "Hg

Humidity: 96%

Dew point: 52 °F

Location of DreieichLocation

Historic Weather in Dreieich — Graph

°F

Dreieich temperature yesterday

Maximum temperature yesterday: 70 °F (at 2:00 PM)
Minimum temperature yesterday: 54 °F (at 5:00 AM)
Average temperature yesterday: 61 °F

Past Weeks' High & Low Weather Summary

 TemperatureHumidityPressure
High76 °F (Sep 17, 4:00 PM)100% (Oct 1, 7:00 AM)30.38 "Hg (Oct 1, 7:00 AM)
Low43 °F (Sep 24, 1:00 AM)46% (Sep 17, 4:00 PM)29.85 "Hg (Sep 18, 5:00 PM)
Average61 °F82%30.11 "Hg
* Reported Sep 17 1:00 AM — Oct 2 1:00 AM, Dreieich, Weather by CustomWeather, © 2014

Note: Actual official high and low records may vary slightly from our data, if they occured in-between our weather recording intervals... More about our weather records

Advertising

Dreieich weather history for previous 24 hours

 ConditionsComfort  
Time TempWeatherWind HumidityBarometerVisibility
1:00 AM
Oct 2
55 °FPassing clouds.1 mph96%30.37 "Hg11 mi
12:00 AM56 °FPassing clouds.1 mph95%30.36 "Hg12 mi
10:00 PM
Oct 1
60 °FClear.1 mph92%30.35 "Hg16 mi
9:00 PM63 °FClear.No wind85%30.34 "Hg16 mi
8:00 PM65 °FPassing clouds.1 mph78%30.32 "Hg14 mi
7:00 PM69 °FScattered clouds.1 mph69%30.30 "Hg16 mi
6:00 PM69 °FPartly sunny.2 mph69%30.30 "Hg17 mi
4:00 PM68 °FPartly sunny.1 mph72%30.30 "Hg10 mi
3:00 PM69 °FPartly sunny.3 mph73%30.31 "Hg7 mi
2:00 PM70 °FScattered clouds.1 mph72%30.32 "Hg7 mi
1:00 PM64 °FFog.1 mph91%30.34 "Hg4 mi
12:00 PM60 °FFog.1 mph100%30.34 "Hg1 mi
11:00 AM59 °FFog.1 mph100%30.34 "Hg1 mi
10:00 AM58 °FFog.1 mph100%30.33 "Hg0 mi
9:00 AM57 °FFog.2 mph100%30.32 "Hg0 mi
8:00 AM57 °FFog.1 mph100%30.32 "Hg0 mi
7:00 AM56 °FFog.1 mph100%30.31 "Hg0 mi
6:00 AM56 °FFog.1 mph99%30.31 "Hg1 mi
5:00 AM54 °FFog.1 mph98%30.31 "Hg4 mi
4:00 AM55 °FFog.1 mph96%30.31 "Hg4 mi
3:00 AM57 °FFog.1 mph97%30.31 "Hg7 mi
2:00 AM58 °FOvercast.1 mph96%30.31 "Hg11 mi
Weather by CustomWeather, © 2014

See weather overviewHow to use our weather pages